#timestamp,LO_Frequency,Hit,StdDev 
1539014415.4,286046998.6,N
1539014435.3,286046998.6,N
1539014455.1,286046998.1,N
1539014456.0,286046998.1,N
1539014475.8,286046998.7,N
1539014495.7,286046999.6,N
1539014515.5,286046999.6,N
1539014535.4,286046999.3,N
1539014555.2,286046998.9,N
1539014575.0,286046998.2,N
1539014595.2,286047000.8,N
1539014615.0,286046998.1,N
1539014615.9,286046998.1,N
1539014635.8,286047000.8,N
1539014655.6,286046998.1,N
1539014675.4,286047001.1,N
1539014695.3,286046999.1,N
1539014715.1,286046999.5,N
1539014735.9,286046997.3,N
1539014755.7,286046996.5,Y
1539014775.5,286047000.8,P
1539014795.4,286047001.1,N
1539014815.2,286046999.2,N
1539014835.0,286046999.0,N
1539014835.9,286046999.0,N
1539014855.8,286046999.2,N
1539014875.6,286046997.2,Y
1539014895.5,286046998.7,P
1539014915.3,286046999.0,N
1539014935.1,286046996.5,P
1539014955.9,286046999.5,N
1539014975.7,286046999.2,N
1539014995.5,286046998.9,N
1539015015.4,286046998.7,N
1539015035.2,286046999.3,N
1539015055.1,286046996.9,Y
1539015056.0,286046996.9,P
1539015075.8,286046998.4,N
1539015095.6,286046998.3,N
1539015115.5,286046999.3,N
1539015135.3,286046999.2,N
1539015155.1,286046997.0,Y
1539015175.9,286046998.4,P
1539015195.7,286047001.2,P
1539015215.6,286047000.9,N
1539015235.4,286047001.0,N
1539015255.2,286046998.6,N
1539015275.1,286047000.9,N
1539015276.0,286047000.9,N
1539015295.7,286047000.9,N
1539015315.5,286047000.3,N
1539015335.4,286047002.5,N
1539015355.2,286047001.9,N
1539015375.0,286046999.9,N
1539015375.9,286046999.9,N
1539015395.8,286047002.8,N
1539015415.8,286047002.7,N
1539015435.6,286047001.3,N
1539015455.5,286047002.2,N
1539015475.3,286047002.5,N
1539015495.1,286047002.5,N
1539015515.9,286047002.8,N
1539015535.7,286047002.3,N
1539015555.6,286047002.7,N
1539015575.4,286047002.6,N
1539015595.2,286047001.5,N
1539015615.1,286047000.2,N
1539015616.0,286047000.2,N
1539015635.8,286047001.8,N
1539015655.6,286047004.1,Y
1539015675.5,286047002.7,P
1539015695.3,286047000.1,N
1539015715.2,286047002.7,N
1539015735.9,286047000.4,N
1539015755.7,286047000.6,N
1539015775.6,286046999.8,N
1539015795.4,286047002.3,N
1539015815.2,286047000.6,N
1539015835.1,286047000.6,N
1539015836.0,286047000.6,N
1539015855.8,286047000.1,N
1539015875.7,286047000.2,N
1539015895.5,286047000.3,N
1539015915.3,286046999.8,N
1539015935.2,286047001.9,N
1539015955.9,286047002.8,N
1539015975.7,286047002.5,N
1539015995.6,286047001.9,N
1539016015.4,286047000.1,N
1539016035.2,286047000.0,N
1539016055.1,286047002.3,N
1539016056.0,286047002.3,N
1539016075.8,286047001.7,N
1539016095.1,286047003.9,Y
1539016096.0,286047003.9,P
1539016115.8,286047002.2,N
1539016135.6,286047001.7,N
1539016155.5,286047002.2,N
1539016175.3,286047002.5,N
1539016195.2,286046999.7,N
1539016215.9,286047002.0,N
1539016235.7,286047002.5,N
1539016255.6,286047001.6,N
1539016275.4,286047001.8,N
1539016295.3,286047002.5,N
1539016315.1,286047001.8,N
1539016316.0,286047001.8,N
1539016335.8,286047001.5,N
1539016355.7,286047003.9,Y
1539016375.5,286047000.2,P
1539016395.3,286047000.3,N
1539016415.2,286046998.6,N
1539016435.0,286046996.9,N
1539016435.9,286046996.9,N
1539016455.8,286046998.8,N
1539016475.6,286046999.3,N
1539016495.4,286046998.8,N
1539016515.3,286046998.5,N
1539016535.1,286047001.1,N
1539016555.9,286047001.1,N
1539016575.7,286047002.2,N
1539016595.5,286046998.4,N
1539016615.4,286047000.9,N
1539016635.2,286047001.1,N
1539016655.0,286046998.5,N
1539016655.9,286046998.5,N
1539016675.8,286047000.6,N
1539016695.7,286047002.8,N
1539016715.5,286047002.3,N
1539016735.4,286047000.6,N
1539016755.2,286047000.8,N
1539016775.0,286047000.1,N
1539016775.9,286047000.1,N
1539016795.8,286047000.1,N
1539016815.6,286047000.1,N
1539016835.5,286046999.7,N
1539016855.3,286046999.9,N
1539016875.1,286046999.8,N
1539016895.9,286047002.2,N
1539016915.7,286047002.0,N
1539016935.5,286047002.8,N
1539016955.4,286047002.7,N
1539016975.2,286047002.5,N
1539016995.0,286047002.1,N
1539016996.0,286047002.1,N
1539017015.8,286047001.6,N
1539017035.6,286047002.3,N
1539017055.5,286047002.0,N
1539017075.3,286046999.7,N
1539017095.1,286047000.1,N
1539017115.9,286046999.8,N
1539017135.7,286047000.9,N
1539017155.6,286047001.0,N
1539017175.4,286047000.5,N
1539017195.2,286047000.3,N
1539017215.1,286046998.6,N
1539017216.0,286046998.6,N
1539017235.8,286046998.4,N
1539017255.6,286047001.2,N
1539017275.5,286046998.3,N
1539017295.3,286046998.6,N
1539017315.2,286047000.2,N
1539017335.9,286047002.7,N
1539017355.7,286047002.4,N
1539017375.6,286047000.3,N
1539017395.4,286047000.5,N
1539017415.3,286047000.9,N
1539017435.1,286047000.1,N
1539017436.0,286047000.1,N
1539017455.8,286047002.2,N
1539017475.7,286046999.8,N
1539017495.5,286047001.0,N
1539017515.3,286047000.7,N
1539017535.2,286047000.6,N
1539017555.0,286047000.5,N
1539017555.9,286047000.5,N
1539017575.8,286047000.7,N
1539017595.6,286047000.3,N
1539017615.4,286047002.5,N
1539017635.3,286047001.8,N
1539017655.1,286047002.2,N
1539017675.8,286047002.7,N
1539017695.7,286047002.7,N
1539017715.5,286047002.2,N
1539017735.4,286047002.8,N
1539017755.2,286047002.0,N
1539017775.0,286047002.7,N
1539017775.9,286047002.7,N
1539017795.8,286047001.4,N
1539017815.6,286047002.4,N
1539017835.4,286047000.2,N
1539017855.3,286047001.0,N
1539017875.1,286047002.4,N
1539017895.9,286047001.6,N
1539017915.7,286047002.3,N
1539017935.5,286047000.2,N
1539017955.4,286047000.3,N
1539017975.2,286046999.9,N
1539017995.0,286047002.7,N
1539017995.9,286047002.7,N
